SCP
-0 0 0 0 -0 -0 -0 -0 -0 -0 -0 -0 -0 -0 -0 -0 -0 -0 -0 -0 0 0 0 0 0 0 0 0 0 0 0 0 0 0 -0 -0 -0 -0 -0 -0 -0 -0 -0
0 -0 -0 -0 -0 -0 -0 -0 -0 -0 -0 -0 -0 -0 -0 -0 -0 -0 0 0 0 0 0 0 0 0 0 0 0 0 0 0 0 0 0 0 -0 -0 0 -0 -0 -0 -0
0 -0 -0 -0 -0 -0 -0 -0 -0 -0 -0 0 0 0 0 0 0 0 0 0 0 0 0 0 0 0 0 0 0 0 0 0 0 0 0 0 0 0 0 0 -0 -0 -0
-0 0 0 -0 -0 -0 -0 -0 -0 0 0 0 0 0 0 0 0 0 0 0 0 0 0 0 0 0 0 0 0 0 0 0 0 0 0 0 0 0 0 0 0 0 0
-0 0 0 -0 -1 -0 -0 -0 0 0 0 0 0 0 0 0 0 0 0 0 0 0 0 0 0 0 0 0 0 0 0 0 0 0 0 0 0 0 0 0 0 0 0
-0 0 -0 -0 0 0 0 0 0 0 0 0 0 0 0 0 0 0 0 0 0 0 0 0 0 0 0 0 0 0 0 0 0 0 0 0 0 0 0 -0 0 0 0
0 -0 -0 0 0 0 0 0 0 0 0 0 0 0 0 0 0 0 0 0 0 0 0 0 0 0 0 0 0 0 0 0 0 0 0 0 0 0 0 0 0 0 0
0 0 -0 -0 -0 0 0 0 0 0 0 0 0 0 0 0 0 0 0 0 0 0 0 0 0 0 0 0 0 0 0 0 0 0 0 0 0 0 0 0 0 0 1
-0 0 -0 -0 -0 -0 0 0 0 0 0 0 0 0 0 0 0 0 0 0 0 0 0 0 0 0 0 0 0 0 0 0 0 0 0 0 0 0 0 0 0 0 0
0 0 0 0 -0 0 0 0 0 0 0 0 1 0 1 1 1 0 0 0 0 0 0 0 0 0 0 0 0 0 0 0 0 0 0 0 0 0 0 1 1 0 1
1 1 1 1 1 0 0 1 1 0 0 0 0 0 1 1 1 1 1 0 0 0 0 0 0 0 0 0 0 0 0 0 0 0 0 0 0 0 0 1 1 0 1
0 0 0 0 0 0 0 2 1 1 1 1 1 1 1 1 1 1 1 0 0 0 0 0 0 0 1 1 1 0 1 0 0 0 0 0 0 0 0 1 1 1 1
0 0 0 0 0 0 0 1 2 2 1 1 0 1 1 1 0 0 0 0 1 0 1 1 1 1 1 1 1 0 0 0 0 0 0 0 0 0 0 1 1 2 2
-0 -0 -0 -0 -0 0 0 0 0 1 1 1 1 0 1 1 0 0 0 0 0 1 0 1 1 1 1 1 0 0 0 0 0 0 0 0 0 0 0 1 1 2 2
0 -0 -0 -0 -0 -0 0 0 0 0 0 0 0 0 1 1 1 1 0 0 0 1 1 1 1 1 1 0 0 0 0 0 0 0 0 0 0 0 1 2 2 3 2
0 0 0 0 0 -0 0 0 0 0 0 0 0 0 2 2 2 1 1 1 1 1 1 1 1 1 0 0 0 0 0 0 0 0 0 0 0 1 1 1 3 3 3
0 0 -0 -0 -0 -0 -0 -0 0 0 0 0 0 0 0 2 1 1 0 0 1 2 1 1 1 1 1 0 0 0 0 0 0 0 0 0 0 1 1 2 3 4 4
0 -0 0 -0 -0 -0 -0 -0 -0 -0 0 0 0 0 0 0 1 1 1 1 1 2 2 1 1 1 1 0 0 0 0 0 0 0 0 0 0 0 1 1 2 3 4
0 0 0 -0 -0 -0 -0 -0 -0 -0 -0 0 0 0 0 0 0 1 2 2 2 2 2 2 1 1 0 0 0 0 0 0 0 0 0 0 0 0 0 1 1 1 2
0 0 0 0 0 0 -0 -0 -0 -0 -0 -0 -0 0 0 0 0 1 2 2 2 2 2 2 1 0 1 0 0 0 0 0 0 0 0 0 0 0 0 0 1 1 1
0 0 0 0 0 -0 -0 -0 -0 -0 -0 -0 -0 0 0 0 0 0 1 2 2 2 0 0 0 0 0 0 0 0 0 0 0 0 0 0 0 0 0 0 1 1 1
0 0 0 0 0 -0 -0 -0 -0 -0 -0 -0 -0 -0 0 0 0 0 1 1 1 0 0 0 0 0 0 0 0 0 0 0 0 0 0 0 0 0 0 0 0 0 0
0 0 0 0 0 0 0 0 0 0 -0 -0 -0 -0 0 0 0 0 0 0 0 0 0 0 0 0 0 0 0 0 0 0 0 0 0 0 0 0 0 0 0 0 0
0 0 0 0 0 0 0 0 0 0 -0 -0 0 0 -0 0 0 0 0 0 0 0 0 0 0 0 0 0 0 0 0 0 0 0 0 0 0 0 0 0 0 0 0
0 0 0 0 0 0 0 0 0 0 0 0 0 0 0 -0 0 0 0 0 0 0 0 0 0 0 0 0 0 0 0 0 0 0 0 0 0 0 0 0 0 0 0
0 0 0 0 0 0 0 -0 0 -0 -0 0 0 0 0 -0 0 0 0 0 0 0 0 0 0 0 0 -0 0 0 0 0 0 0 0 0 0 0 0 0 0 0 0
Wind_Speed_500mb
29 27 23 20 18 16 17 16 17 17 19 21 20 17 15 14 14 15 15 17 21 24 26 26 27 29 24 21 19 14 8 8 8 7 6 9 12 11 7 1 3 3 9
26 28 26 23 18 15 14 14 17 18 15 18 19 16 13 12 10 12 16 18 20 24 25 26 27 28 24 20 19 15 8 7 9 10 11 14 16 13 10 2 2 1 4
28 27 23 20 16 15 14 12 13 13 14 13 17 18 13 11 9 10 10 14 20 22 22 21 21 21 22 20 18 17 14 11 11 12 15 17 20 18 15 7 5 3 7
13 20 19 20 18 16 13 11 11 11 11 12 12 13 13 11 9 8 9 10 11 15 21 23 21 19 18 20 20 18 17 14 13 14 17 22 24 23 19 19 15 11 12
5 19 17 18 16 13 12 11 11 11 9 9 9 9 11 11 10 12 11 10 10 12 15 17 18 19 19 19 19 19 19 18 16 16 19 24 27 25 27 31 26 20 18
5 23 22 21 15 10 9 8 8 8 7 6 6 5 6 7 8 11 14 15 14 14 14 16 19 19 19 19 19 18 18 17 18 18 20 27 34 28 19 26 29 27 23
26 27 33 21 12 6 6 8 5 7 5 5 5 3 4 5 8 10 12 15 17 18 19 20 21 22 22 22 22 21 21 22 23 21 20 27 34 30 24 25 32 35 35
16 26 29 16 7 6 7 7 8 4 4 6 9 10 10 11 9 13 15 17 19 20 21 23 24 25 27 27 28 29 28 28 29 28 26 29 36 35 32 37 39 36 35
16 17 17 15 12 11 9 6 5 3 0 3 8 11 15 17 17 18 18 19 21 23 23 24 25 27 28 30 32 33 33 32 34 31 31 32 37 42 37 38 42 40 39
6 9 11 11 8 9 11 9 7 5 5 11 19 17 17 21 21 21 24 23 22 22 24 25 26 29 31 32 34 35 37 37 37 33 33 34 34 46 41 39 49 48 42
27 33 22 9 6 17 8 16 18 17 14 21 24 28 30 27 25 28 28 26 25 22 19 20 24 28 31 34 36 36 37 39 38 36 32 30 35 45 53 42 50 56 46
37 26 21 19 17 25 21 21 18 18 19 31 36 37 32 30 29 33 33 30 28 21 16 17 17 17 24 29 36 34 35 32 38 34 32 35 37 43 43 50 47 57 55
37 28 20 21 26 25 22 20 21 15 30 36 40 48 43 36 30 27 26 27 31 24 23 20 21 22 20 20 17 21 25 26 31 32 32 31 27 38 45 50 57 62 65
31 33 43 44 41 35 27 29 29 24 32 35 35 41 37 38 37 39 36 34 32 30 29 28 29 31 31 29 28 30 34 33 27 26 31 29 32 37 47 57 62 68 71
18 29 41 54 48 43 38 34 34 36 37 39 43 36 34 40 45 44 45 44 41 38 38 40 37 32 31 33 35 31 34 34 35 36 36 39 46 51 52 50 52 65 74
16 31 34 36 40 47 50 49 48 46 43 41 40 40 38 45 52 54 57 54 50 47 42 45 44 42 40 38 40 42 40 35 33 42 54 58 60 61 62 54 55 61 75
25 34 42 44 45 47 53 60 57 53 50 47 45 44 46 44 52 57 63 67 58 56 51 48 48 47 41 42 39 43 44 46 47 49 48 47 49 59 65 68 67 67 70
34 42 42 43 41 44 48 52 56 58 59 53 52 51 51 55 55 55 57 73 67 57 47 54 59 57 49 45 43 40 39 38 43 55 67 68 61 59 60 64 69 75 75
32 35 31 29 34 42 53 60 56 55 59 65 54 53 55 59 59 55 55 62 69 53 49 49 50 53 41 44 44 46 42 45 47 49 53 56 60 61 60 70 68 72 84
30 25 20 27 35 41 52 59 62 66 66 69 67 56 48 56 61 55 50 60 63 63 55 47 36 31 34 39 41 42 44 44 49 50 54 56 60 60 58 64 70 80 83
19 17 30 35 42 47 50 62 71 74 74 66 62 58 52 47 49 52 48 60 68 68 56 51 36 30 34 38 36 43 45 48 51 53 51 50 47 48 54 52 52 64 73
34 30 30 35 45 57 63 63 64 71 70 69 63 59 59 57 44 42 49 45 62 66 62 48 47 24 45 37 31 37 47 50 58 48 51 52 54 51 54 52 54 54 59
40 38 43 51 57 58 61 63 64 58 52 55 58 60 56 48 42 38 29 46 49 58 61 38 29 27 31 35 39 39 22 25 52 62 60 57 56 55 54 53 54 54 53
40 46 46 38 44 47 49 47 42 47 47 49 48 50 49 44 32 25 22 23 41 23 20 27 24 16 27 43 39 43 42 45 44 50 66 65 54 55 59 62 64 63 56
31 34 36 41 49 46 37 50 48 51 44 42 45 46 44 43 31 26 26 21 26 35 36 34 33 31 20 41 60 50 52 56 50 49 57 63 58 52 55 58 59 58 45
42 41 45 44 37 40 47 46 53 59 58 50 43 46 49 43 30 23 14 11 6 6 9 26 28 23 21 55 59 47 47 48 46 43 46 51 57 49 46 54 45 40 25
Wind_Direction_500mb
180 164 157 152 156 153 139 129 120 126 132 130 128 119 110 113 127 137 145 152 155 158 162 165 166 171 167 163 164 166 178 212 238 256 225 184 159 144 143 197 304 231 152
164 162 162 158 162 149 136 132 127 130 132 131 133 128 116 113 121 140 147 153 162 167 172 176 178 182 181 179 181 187 200 222 235 239 215 197 179 173 191 220 346 345 204
155 161 161 157 160 145 134 132 123 121 124 128 135 138 136 131 130 140 152 163 167 172 178 181 187 196 200 201 203 209 218 226 229 225 211 203 198 197 218 255 276 267 263
151 162 163 166 171 151 139 134 122 118 121 124 127 136 136 138 139 148 156 169 181 185 184 183 187 203 215 224 230 234 234 234 235 226 215 207 207 211 239 248 268 259 259
184 161 168 181 171 154 141 129 118 115 115 117 125 141 148 155 163 165 174 187 198 203 200 196 201 208 218 226 234 241 245 251 244 237 224 213 209 221 253 250 254 260 266
215 182 176 184 186 159 142 131 117 102 101 106 120 147 169 170 189 188 189 195 207 219 226 224 226 231 233 235 237 244 249 251 252 246 227 222 217 226 243 251 239 262 273
230 195 192 178 163 162 149 132 109 85 60 26 6 321 250 215 218 223 218 218 221 226 228 234 241 242 245 249 252 255 263 267 266 259 242 223 221 236 237 252 248 263 269
133 179 186 170 145 180 184 158 140 119 56 2 326 317 298 281 254 245 239 233 236 240 242 243 243 245 247 248 254 259 262 266 268 264 253 232 232 243 248 238 255 270 272
148 181 151 153 180 204 211 202 173 151 84 300 283 294 295 284 281 275 262 254 249 248 247 249 255 259 261 260 257 257 260 262 264 263 257 247 244 238 245 233 248 268 273
145 132 159 172 225 329 306 239 249 255 265 303 293 280 279 282 275 270 272 269 263 264 265 264 263 265 265 265 266 268 269 268 267 266 261 257 252 239 243 241 245 260 270
97 76 82 46 30 332 283 306 282 268 274 312 326 315 288 276 276 267 263 263 265 255 261 276 280 276 275 275 275 276 276 275 275 271 265 263 257 250 245 248 243 250 261
103 92 69 54 39 24 19 342 315 298 286 297 299 300 286 280 281 273 264 257 251 253 276 277 284 286 277 286 280 277 279 288 277 268 260 274 276 251 245 244 243 246 255
82 77 47 12 352 336 333 336 343 289 282 282 289 292 292 278 273 270 266 253 246 247 259 272 283 279 288 296 290 274 282 296 289 256 261 284 282 244 248 256 256 253 253
53 27 8 359 344 335 325 319 310 291 282 276 285 281 278 274 279 270 266 259 248 255 256 266 268 280 275 278 276 277 278 279 293 278 269 280 283 282 286 276 265 253 249
317 336 332 331 347 355 346 330 319 309 290 281 278 280 270 266 269 277 267 253 259 260 247 255 258 260 267 270 279 290 282 274 271 276 279 281 282 282 279 272 265 251 246
351 3 2 352 346 353 354 348 334 316 308 293 282 273 271 267 269 278 268 255 253 258 256 262 259 263 265 265 279 283 280 277 273 275 274 273 276 279 280 275 262 255 250
31 15 9 12 8 360 353 354 348 335 317 305 292 277 269 270 265 270 263 257 251 247 258 257 259 261 261 267 274 282 284 280 281 280 277 283 280 275 271 277 273 257 255
32 15 15 4 359 360 359 352 349 343 337 320 301 288 276 272 274 274 271 252 245 250 261 260 262 261 266 272 279 291 293 287 280 277 278 281 277 278 284 276 269 265 263
27 22 12 357 354 355 349 346 350 351 345 340 324 300 279 277 277 271 268 257 247 248 262 259 260 262 265 271 277 283 288 294 298 296 291 291 290 289 284 273 275 274 266
37 22 10 3 360 359 347 339 337 338 337 339 333 330 312 280 274 273 265 256 249 248 256 251 270 269 268 273 278 289 290 293 298 297 300 298 289 289 292 283 278 274 272
51 53 28 9 8 359 353 344 342 342 341 335 330 336 318 302 279 276 270 253 258 248 250 248 243 266 265 273 278 281 287 290 293 298 302 305 303 293 289 297 290 292 278
86 60 37 10 351 345 342 345 346 340 339 336 334 340 339 327 304 298 272 268 252 252 253 249 250 247 278 256 262 276 289 291 294 299 302 307 310 308 305 299 288 288 293
39 19 358 341 331 331 332 329 335 338 336 341 345 351 351 337 333 328 297 263 254 257 258 270 265 253 257 275 268 270 278 280 301 299 302 304 308 311 312 306 297 295 289
359 342 337 348 351 349 344 335 344 349 358 5 2 3 353 353 344 338 321 287 245 228 217 211 214 194 233 282 277 280 280 285 296 304 304 305 308 306 306 304 304 299 289
326 336 337 342 344 347 2 4 352 1 352 358 9 10 2 354 2 11 14 2 299 261 230 224 242 230 261 294 292 288 290 293 293 299 301 303 301 305 303 303 308 308 303
330 333 335 333 351 347 350 356 348 348 352 353 352 354 357 360 354 351 339 312 302 280 286 259 236 238 242 273 275 277 281 291 295 297 293 298 306 309 309 311 314 305 297
Wind_Speed_850mb
29 27 23 20 18 16 17 16 17 17 19 21 20 17 15 14 14 15 15 17 21 24 26 26 27 29 24 21 19 14 8 8 8 7 6 9 12 11 7 1 3 3 9
26 28 26 23 18 15 14 14 17 18 15 18 19 16 13 12 10 12 16 18 20 24 25 26 27 28 24 20 19 15 8 7 9 10 11 14 16 13 10 2 2 1 4
28 27 23 20 16 15 14 12 13 13 14 13 17 18 13 11 9 10 10 14 20 22 22 21 21 21 22 20 18 17 14 11 11 12 15 17 20 18 15 7 5 3 7
13 20 19 20 18 16 13 11 11 11 11 12 12 13 13 11 9 8 9 10 11 15 21 23 21 19 18 20 20 18 17 14 13 14 17 22 24 23 19 19 15 11 12
5 19 17 18 16 13 12 11 11 11 9 9 9 9 11 11 10 12 11 10 10 12 15 17 18 19 19 19 19 19 19 18 16 16 19 24 27 25 27 31 26 20 18
5 23 22 21 15 10 9 8 8 8 7 6 6 5 6 7 8 11 14 15 14 14 14 16 19 19 19 19 19 18 18 17 18 18 20 27 34 28 19 26 29 27 23
26 27 33 21 12 6 6 8 5 7 5 5 5 3 4 5 8 10 12 15 17 18 19 20 21 22 22 22 22 21 21 22 23 21 20 27 34 30 24 25 32 35 35
16 26 29 16 7 6 7 7 8 4 4 6 9 10 10 11 9 13 15 17 19 20 21 23 24 25 27 27 28 29 28 28 29 28 26 29 36 35 32 37 39 36 35
16 17 17 15 12 11 9 6 5 3 0 3 8 11 15 17 17 18 18 19 21 23 23 24 25 27 28 30 32 33 33 32 34 31 31 32 37 42 37 38 42 40 39
6 9 11 11 8 9 11 9 7 5 5 11 19 17 17 21 21 21 24 23 22 22 24 25 26 29 31 32 34 35 37 37 37 33 33 34 34 46 41 39 49 48 42
27 33 22 9 6 17 8 16 18 17 14 21 24 28 30 27 25 28 28 26 25 22 19 20 24 28 31 34 36 36 37 39 38 36 32 30 35 45 53 42 50 56 46
37 26 21 19 17 25 21 21 18 18 19 31 36 37 32 30 29 33 33 30 28 21 16 17 17 17 24 29 36 34 35 32 38 34 32 35 37 43 43 50 47 57 55
37 28 20 21 26 25 22 20 21 15 30 36 40 48 43 36 30 27 26 27 31 24 23 20 21 22 20 20 17 21 25 26 31 32 32 31 27 38 45 50 57 62 65
31 33 43 44 41 35 27 29 29 24 32 35 35 41 37 38 37 39 36 34 32 30 29 28 29 31 31 29 28 30 34 33 27 26 31 29 32 37 47 57 62 68 71
18 29 41 54 48 43 38 34 34 36 37 39 43 36 34 40 45 44 45 44 41 38 38 40 37 32 31 33 35 31 34 34 35 36 36 39 46 51 52 50 52 65 74
16 31 34 36 40 47 50 49 48 46 43 41 40 40 38 45 52 54 57 54 50 47 42 45 44 42 40 38 40 42 40 35 33 42 54 58 60 61 62 54 55 61 75
25 34 42 44 45 47 53 60 57 53 50 47 45 44 46 44 52 57 63 67 58 56 51 48 48 47 41 42 39 43 44 46 47 49 48 47 49 59 65 68 67 67 70
34 42 42 43 41 44 48 52 56 58 59 53 52 51 51 55 55 55 57 73 67 57 47 54 59 57 49 45 43 40 39 38 43 55 67 68 61 59 60 64 69 75 75
32 35 31 29 34 42 53 60 56 55 59 65 54 53 55 59 59 55 55 62 69 53 49 49 50 53 41 44 44 46 42 45 47 49 53 56 60 61 60 70 68 72 84
30 25 20 27 35 41 52 59 62 66 66 69 67 56 48 56 61 55 50 60 63 63 55 47 36 31 34 39 41 42 44 44 49 50 54 56 60 60 58 64 70 80 83
19 17 30 35 42 47 50 62 71 74 74 66 62 58 52 47 49 52 48 60 68 68 56 51 36 30 34 38 36 43 45 48 51 53 51 50 47 48 54 52 52 64 73
34 30 30 35 45 57 63 63 64 71 70 69 63 59 59 57 44 42 49 45 62 66 62 48 47 24 45 37 31 37 47 50 58 48 51 52 54 51 54 52 54 54 59
40 38 43 51 57 58 61 63 64 58 52 55 58 60 56 48 42 38 29 46 49 58 61 38 29 27 31 35 39 39 22 25 52 62 60 57 56 55 54 53 54 54 53
40 46 46 38 44 47 49 47 42 47 47 49 48 50 49 44 32 25 22 23 41 23 20 27 24 16 27 43 39 43 42 45 44 50 66 65 54 55 59 62 64 63 56
31 34 36 41 49 46 37 50 48 51 44 42 45 46 44 43 31 26 26 21 26 35 36 34 33 31 20 41 60 50 52 56 50 49 57 63 58 52 55 58 59 58 45
42 41 45 44 37 40 47 46 53 59 58 50 43 46 49 43 30 23 14 11 6 6 9 26 28 23 21 55 59 47 47 48 46 43 46 51 57 49 46 54 45 40 25
Wind_Direction_850mb
180 164 157 152 156 153 139 129 120 126 132 130 128 119 110 113 127 137 145 152 155 158 162 165 166 171 167 163 164 166 178 212 238 256 225 184 159 144 143 197 304 231 152
164 162 162 158 162 149 136 132 127 130 132 131 133 128 116 113 121 140 147 153 162 167 172 176 178 182 181 179 181 187 200 222 235 239 215 197 179 173 191 220 346 345 204
155 161 161 157 160 145 134 132 123 121 124 128 135 138 136 131 130 140 152 163 167 172 178 181 187 196 200 201 203 209 218 226 229 225 211 203 198 197 218 255 276 267 263
151 162 163 166 171 151 139 134 122 118 121 124 127 136 136 138 139 148 156 169 181 185 184 183 187 203 215 224 230 234 234 234 235 226 215 207 207 211 239 248 268 259 259
184 161 168 181 171 154 141 129 118 115 115 117 125 141 148 155 163 165 174 187 198 203 200 196 201 208 218 226 234 241 245 251 244 237 224 213 209 221 253 250 254 260 266
215 182 176 184 186 159 142 131 117 102 101 106 120 147 169 170 189 188 189 195 207 219 226 224 226 231 233 235 237 244 249 251 252 246 227 222 217 226 243 251 239 262 273
230 195 192 178 163 162 149 132 109 85 60 26 6 321 250 215 218 223 218 218 221 226 228 234 241 242 245 249 252 255 263 267 266 259 242 223 221 236 237 252 248 263 269
133 179 186 170 145 180 184 158 140 119 56 2 326 317 298 281 254 245 239 233 236 240 242 243 243 245 247 248 254 259 262 266 268 264 253 232 232 243 248 238 255 270 272
148 181 151 153 180 204 211 202 173 151 84 300 283 294 295 284 281 275 262 254 249 248 247 249 255 259 261 260 257 257 260 262 264 263 257 247 244 238 245 233 248 268 273
145 132 159 172 225 329 306 239 249 255 265 303 293 280 279 282 275 270 272 269 263 264 265 264 263 265 265 265 266 268 269 268 267 266 261 257 252 239 243 241 245 260 270
97 76 82 46 30 332 283 306 282 268 274 312 326 315 288 276 276 267 263 263 265 255 261 276 280 276 275 275 275 276 276 275 275 271 265 263 257 250 245 248 243 250 261
103 92 69 54 39 24 19 342 315 298 286 297 299 300 286 280 281 273 264 257 251 253 276 277 284 286 277 286 280 277 279 288 277 268 260 274 276 251 245 244 243 246 255
82 77 47 12 352 336 333 336 343 289 282 282 289 292 292 278 273 270 266 253 246 247 259 272 283 279 288 296 290 274 282 296 289 256 261 284 282 244 248 256 256 253 253
53 27 8 359 344 335 325 319 310 291 282 276 285 281 278 274 279 270 266 259 248 255 256 266 268 280 275 278 276 277 278 279 293 278 269 280 283 282 286 276 265 253 249
317 336 332 331 347 355 346 330 319 309 290 281 278 280 270 266 269 277 267 253 259 260 247 255 258 260 267 270 279 290 282 274 271 276 279 281 282 282 279 272 265 251 246
351 3 2 352 346 353 354 348 334 316 308 293 282 273 271 267 269 278 268 255 253 258 256 262 259 263 265 265 279 283 280 277 273 275 274 273 276 279 280 275 262 255 250
31 15 9 12 8 360 353 354 348 335 317 305 292 277 269 270 265 270 263 257 251 247 258 257 259 261 261 267 274 282 284 280 281 280 277 283 280 275 271 277 273 257 255
32 15 15 4 359 360 359 352 349 343 337 320 301 288 276 272 274 274 271 252 245 250 261 260 262 261 266 272 279 291 293 287 280 277 278 281 277 278 284 276 269 265 263
27 22 12 357 354 355 349 346 350 351 345 340 324 300 279 277 277 271 268 257 247 248 262 259 260 262 265 271 277 283 288 294 298 296 291 291 290 289 284 273 275 274 266
37 22 10 3 360 359 347 339 337 338 337 339 333 330 312 280 274 273 265 256 249 248 256 251 270 269 268 273 278 289 290 293 298 297 300 298 289 289 292 283 278 274 272
51 53 28 9 8 359 353 344 342 342 341 335 330 336 318 302 279 276 270 253 258 248 250 248 243 266 265 273 278 281 287 290 293 298 302 305 303 293 289 297 290 292 278
86 60 37 10 351 345 342 345 346 340 339 336 334 340 339 327 304 298 272 268 252 252 253 249 250 247 278 256 262 276 289 291 294 299 302 307 310 308 305 299 288 288 293
39 19 358 341 331 331 332 329 335 338 336 341 345 351 351 337 333 328 297 263 254 257 258 270 265 253 257 275 268 270 278 280 301 299 302 304 308 311 312 306 297 295 289
359 342 337 348 351 349 344 335 344 349 358 5 2 3 353 353 344 338 321 287 245 228 217 211 214 194 233 282 277 280 280 285 296 304 304 305 308 306 306 304 304 299 289
326 336 337 342 344 347 2 4 352 1 352 358 9 10 2 354 2 11 14 2 299 261 230 224 242 230 261 294 292 288 290 293 293 299 301 303 301 305 303 303 308 308 303
330 333 335 333 351 347 350 356 348 348 352 353 352 354 357 360 354 351 339 312 302 280 286 259 236 238 242 273 275 277 281 291 295 297 293 298 306 309 309 311 314 305 297